Tracking 19245 objects as of 18-Aug-2018
HD Live streaming from Space Station
objects crossing your sky now

WESTFORD NEEDLES

Track WESTFORD NEEDLES now!
10-day predictions
WESTFORD NEEDLES is classified as:


NORAD ID: 2362
Int'l Code: 1963-014M
Perigee: 1,531.2 km
Apogee: 5,585.1 km
Inclination: 86.0 °
Period: 164.1 minutes
Semi major axis: 9929 km
RCS: 0.2493 m2 (medium)
Launch date: May 9, 1963
Source: United States (US)
Launch site: AIR FORCE WESTERN TEST RANGE (AFWTR)
aabbcc
Your satellite tracking list
Your tracking list is empty




NASA's NSSDC Master Catalog

Two Line Element Set (TLE):
1  2362U 63014M   18228.69406271 +.00004928 +00000-0 +23373+0 0  9993
2  2362 086.0067 125.6073 2041403 138.0517 239.6258 08.77470917754657
Source of the keplerian elements: AFSPC